KAP99 KAUG-KBOS

Flight info

Callsign KAP99
Flight time 0h 46m
Altitude 4000
Route ENE PEASE STEVO LWRNC
Aircraft C414/L-SBDFGRY/S

Departure

Time 2026-05-04 12:27
Airport Augusta State Airport (KAUG)

Arrival

Time 2026-05-04 13:14
Airport Boston Logan International Airport (KBOS)
Time Latitude Longitude Altitude Speed Heading
2026-05-04 12:07 44.31744 -69.79394 356 ft 0 kts 151°
2026-05-04 12:23 44.31743 -69.79393 353 ft 1 kts 175°
2026-05-04 12:23 44.31741 -69.79401 353 ft 3 kts 317°
2026-05-04 12:23 44.31751 -69.79426 353 ft 2 kts 309°
2026-05-04 12:24 44.31794 -69.79433 353 ft 7 kts 31°
2026-05-04 12:24 44.31837 -69.79356 352 ft 11 kts 61°
2026-05-04 12:24 44.31851 -69.79320 352 ft 0 kts 62°
2026-05-04 12:24 44.31851 -69.79319 352 ft 1 kts 62°
2026-05-04 12:25 44.31877 -69.79219 352 ft 13 kts 95°
2026-05-04 12:25 44.31860 -69.79110 352 ft 10 kts 102°
2026-05-04 12:25 44.31867 -69.79017 352 ft 13 kts 56°
2026-05-04 12:25 44.31947 -69.78970 352 ft 12 kts 11°
2026-05-04 12:26 44.32029 -69.78905 352 ft 10 kts 51°
2026-05-04 12:26 44.32058 -69.78927 353 ft 6 kts 254°
2026-05-04 12:26 44.32029 -69.79013 354 ft 29 kts 242°
2026-05-04 12:26 44.31851 -69.79492 355 ft 79 kts 242°
2026-05-04 12:27 44.31558 -69.80213 500 ft 89 kts 239°
2026-05-04 12:27 44.31242 -69.80999 721 ft 99 kts 248°
2026-05-04 12:27 44.30964 -69.81937 992 ft 110 kts 246°
2026-05-04 12:27 44.30588 -69.82906 1287 ft 119 kts 224°
2026-05-04 12:28 44.29763 -69.83184 1596 ft 130 kts 189°
2026-05-04 12:28 44.29046 -69.83791 1888 ft 125 kts 238°
2026-05-04 12:28 44.28469 -69.84725 2170 ft 132 kts 218°
2026-05-04 12:28 44.27683 -69.85489 2459 ft 139 kts 217°
2026-05-04 12:29 44.26885 -69.86244 2725 ft 138 kts 216°
2026-05-04 12:29 44.26082 -69.86982 2988 ft 139 kts 216°
2026-05-04 12:29 44.25272 -69.87719 3245 ft 139 kts 217°
2026-05-04 12:29 44.24459 -69.88452 3500 ft 139 kts 218°
2026-05-04 12:30 44.23647 -69.89188 3757 ft 140 kts 218°
2026-05-04 12:30 44.22828 -69.89931 3996 ft 143 kts 219°
2026-05-04 12:30 44.21951 -69.90731 4018 ft 157 kts 219°
2026-05-04 12:30 44.21007 -69.91584 4022 ft 165 kts 219°
2026-05-04 12:31 44.20035 -69.92472 4019 ft 169 kts 219°
2026-05-04 12:31 44.19036 -69.93368 4021 ft 172 kts 218°
2026-05-04 12:31 44.18023 -69.94267 4022 ft 173 kts 218°
2026-05-04 12:31 44.17015 -69.95180 4015 ft 174 kts 219°
2026-05-04 12:32 44.15991 -69.96107 4016 ft 176 kts 219°
2026-05-04 12:32 44.13935 -69.97961 4025 ft 177 kts 219°
2026-05-04 12:32 44.12902 -69.98891 4023 ft 177 kts 219°
2026-05-04 12:33 44.11871 -69.99823 4021 ft 177 kts 219°
2026-05-04 12:33 44.10838 -70.00751 4025 ft 177 kts 219°
2026-05-04 12:33 44.09805 -70.01678 4020 ft 177 kts 219°
2026-05-04 12:33 44.08773 -70.02607 4018 ft 176 kts 219°
2026-05-04 12:34 44.07874 -70.03417 4017 ft 176 kts 219°
2026-05-04 12:34 44.07361 -70.03878 4020 ft 176 kts 219°
2026-05-04 12:34 44.06331 -70.04803 4017 ft 177 kts 219°
2026-05-04 12:35 44.05299 -70.05730 4015 ft 177 kts 219°
2026-05-04 12:35 44.04269 -70.06654 4016 ft 176 kts 219°
2026-05-04 12:35 44.03238 -70.07579 4020 ft 177 kts 218°
2026-05-04 12:36 43.97999 -70.12275 4005 ft 176 kts 220°
2026-05-04 12:37 43.96969 -70.13197 4005 ft 176 kts 220°
2026-05-04 12:37 43.95940 -70.14117 4004 ft 176 kts 220°
2026-05-04 12:37 43.94914 -70.15034 4007 ft 176 kts 220°
2026-05-04 12:37 43.93883 -70.15958 4006 ft 177 kts 220°
2026-05-04 12:38 43.92853 -70.16878 4006 ft 176 kts 220°
2026-05-04 12:38 43.91822 -70.17798 4007 ft 176 kts 220°
2026-05-04 12:38 43.90793 -70.18718 4009 ft 177 kts 220°
2026-05-04 12:38 43.89754 -70.19645 4011 ft 178 kts 220°
2026-05-04 12:39 43.88715 -70.20572 4011 ft 177 kts 220°
2026-05-04 12:39 43.87680 -70.21492 4010 ft 176 kts 220°
2026-05-04 12:39 43.86652 -70.22411 4010 ft 176 kts 220°
2026-05-04 12:39 43.85624 -70.23329 4012 ft 176 kts 219°
2026-05-04 12:40 43.84593 -70.24243 4009 ft 176 kts 220°
2026-05-04 12:40 43.83568 -70.25155 4024 ft 174 kts 221°
2026-05-04 12:40 43.82554 -70.26055 4024 ft 172 kts 222°
2026-05-04 12:40 43.81550 -70.26953 4024 ft 172 kts 222°
2026-05-04 12:41 43.80546 -70.27845 4025 ft 172 kts 221°
2026-05-04 12:41 43.79541 -70.28737 4026 ft 172 kts 222°
2026-05-04 12:41 43.78535 -70.29632 4030 ft 173 kts 221°
2026-05-04 12:41 43.77522 -70.30532 4032 ft 173 kts 222°
2026-05-04 12:42 43.76505 -70.31435 4010 ft 174 kts 222°
2026-05-04 12:42 43.75490 -70.32332 4012 ft 172 kts 222°
2026-05-04 12:42 43.74482 -70.33229 4013 ft 172 kts 222°
2026-05-04 12:42 43.73470 -70.34126 4015 ft 174 kts 221°
2026-05-04 12:43 43.72451 -70.35031 4013 ft 174 kts 221°
2026-05-04 12:43 43.71415 -70.35949 4009 ft 174 kts 221°
2026-05-04 12:43 43.70397 -70.36847 4014 ft 174 kts 222°
2026-05-04 12:43 43.69377 -70.37751 4015 ft 174 kts 222°
2026-05-04 12:44 43.68373 -70.38641 4016 ft 174 kts 221°
2026-05-04 12:44 43.67355 -70.39540 4013 ft 174 kts 222°
2026-05-04 12:44 43.66328 -70.40448 4014 ft 172 kts 222°
2026-05-04 12:44 43.65334 -70.41327 4013 ft 171 kts 222°
2026-05-04 12:45 43.64319 -70.42223 4014 ft 171 kts 222°
2026-05-04 12:45 43.63318 -70.43107 4014 ft 171 kts 222°
2026-05-04 12:45 43.62318 -70.43990 4014 ft 171 kts 222°
2026-05-04 12:45 43.61319 -70.44870 4015 ft 170 kts 222°
2026-05-04 12:46 43.60322 -70.45750 4022 ft 170 kts 222°
2026-05-04 12:46 43.59329 -70.46625 4025 ft 169 kts 222°
2026-05-04 12:46 43.58256 -70.47336 4027 ft 175 kts 209°
2026-05-04 12:46 43.57078 -70.47819 4029 ft 177 kts 207°
2026-05-04 12:47 43.55901 -70.48309 4030 ft 177 kts 208°
2026-05-04 12:47 43.54723 -70.48815 4031 ft 177 kts 208°
2026-05-04 12:47 43.53550 -70.49324 4033 ft 177 kts 208°
2026-05-04 12:47 43.52380 -70.49829 4035 ft 176 kts 208°
2026-05-04 12:48 43.51212 -70.50335 4035 ft 176 kts 208°
2026-05-04 12:48 43.50057 -70.50836 4015 ft 177 kts 208°
2026-05-04 12:48 43.48867 -70.51350 4037 ft 177 kts 208°
2026-05-04 12:48 43.47691 -70.51858 4035 ft 177 kts 208°
2026-05-04 12:49 43.46520 -70.52364 4038 ft 177 kts 208°
2026-05-04 12:49 43.45348 -70.52871 4039 ft 177 kts 208°
2026-05-04 12:49 43.44172 -70.53379 4039 ft 177 kts 208°
2026-05-04 12:49 43.42993 -70.53888 4041 ft 177 kts 208°
2026-05-04 12:50 43.41813 -70.54397 4042 ft 178 kts 208°
2026-05-04 12:50 43.40629 -70.54906 4041 ft 178 kts 208°
2026-05-04 12:50 43.39847 -70.55243 4041 ft 178 kts 208°
2026-05-04 12:50 43.38668 -70.55752 4042 ft 178 kts 208°
2026-05-04 12:51 43.37489 -70.56259 4043 ft 178 kts 208°
2026-05-04 12:51 43.36310 -70.56768 4042 ft 178 kts 208°
2026-05-04 12:51 43.35127 -70.57276 4042 ft 178 kts 208°
2026-05-04 12:51 43.33943 -70.57786 4041 ft 178 kts 208°
2026-05-04 12:52 43.32758 -70.58295 4042 ft 179 kts 208°
2026-05-04 12:52 43.31555 -70.58812 4034 ft 178 kts 207°
2026-05-04 12:52 43.30376 -70.59318 4039 ft 177 kts 208°
2026-05-04 12:52 43.29197 -70.59825 4038 ft 177 kts 208°
2026-05-04 12:53 43.28021 -70.60329 4037 ft 177 kts 208°
2026-05-04 12:53 43.26845 -70.60834 4039 ft 177 kts 208°
2026-05-04 12:53 43.25673 -70.61337 4039 ft 176 kts 208°
2026-05-04 12:53 43.24502 -70.61838 4036 ft 176 kts 208°
2026-05-04 12:54 43.23338 -70.62336 4043 ft 175 kts 208°
2026-05-04 12:54 43.22174 -70.62836 4040 ft 176 kts 208°
2026-05-04 12:54 43.21008 -70.63336 4040 ft 176 kts 208°
2026-05-04 12:54 43.19840 -70.63836 4039 ft 176 kts 208°
2026-05-04 12:55 43.18673 -70.64337 4043 ft 176 kts 208°
2026-05-04 12:55 43.17497 -70.64841 4042 ft 178 kts 208°
2026-05-04 12:55 43.16315 -70.65345 4043 ft 178 kts 208°
2026-05-04 12:55 43.15132 -70.65850 4044 ft 178 kts 208°
2026-05-04 12:56 43.13954 -70.66352 4045 ft 177 kts 208°
2026-05-04 12:56 43.12779 -70.66854 4045 ft 177 kts 208°
2026-05-04 12:56 43.11605 -70.67355 4044 ft 177 kts 208°
2026-05-04 12:56 43.10428 -70.67859 4044 ft 177 kts 208°
2026-05-04 12:57 43.09251 -70.68359 4045 ft 177 kts 208°
2026-05-04 12:57 43.08077 -70.68860 4045 ft 177 kts 208°
2026-05-04 12:57 43.06902 -70.69361 4046 ft 177 kts 208°
2026-05-04 12:57 43.05725 -70.69864 4044 ft 177 kts 208°
2026-05-04 12:58 43.04552 -70.70362 4045 ft 177 kts 208°
2026-05-04 12:58 43.03379 -70.70862 4043 ft 176 kts 208°
2026-05-04 12:58 43.02208 -70.71360 4043 ft 176 kts 208°
2026-05-04 12:58 43.01037 -70.71858 4045 ft 176 kts 208°
2026-05-04 12:59 42.99866 -70.72356 4046 ft 177 kts 208°
2026-05-04 12:59 42.98692 -70.72855 4046 ft 177 kts 208°
2026-05-04 12:59 42.97517 -70.73354 4046 ft 177 kts 208°
2026-05-04 12:59 42.96341 -70.73854 4033 ft 177 kts 207°
2026-05-04 13:00 42.95168 -70.74351 4040 ft 176 kts 207°
2026-05-04 13:00 42.93997 -70.74847 4039 ft 176 kts 207°
2026-05-04 13:00 42.92827 -70.75345 4040 ft 176 kts 207°
2026-05-04 13:00 42.91657 -70.75840 4040 ft 176 kts 207°
2026-05-04 13:01 42.90487 -70.76336 4042 ft 176 kts 207°
2026-05-04 13:01 42.89319 -70.76831 4042 ft 176 kts 207°
2026-05-04 13:01 42.88136 -70.77331 4047 ft 176 kts 207°
2026-05-04 13:01 42.86968 -70.77827 4048 ft 176 kts 207°
2026-05-04 13:02 42.85799 -70.78321 4049 ft 176 kts 207°
2026-05-04 13:02 42.84632 -70.78815 4049 ft 175 kts 207°
2026-05-04 13:02 42.83465 -70.79308 4049 ft 176 kts 207°
2026-05-04 13:02 42.82298 -70.79801 4050 ft 175 kts 207°
2026-05-04 13:03 42.81132 -70.80294 4053 ft 176 kts 207°
2026-05-04 13:03 42.80360 -70.80620 4053 ft 176 kts 207°
2026-05-04 13:03 42.78834 -70.81265 4058 ft 177 kts 207°
2026-05-04 13:03 42.78055 -70.81595 4053 ft 177 kts 206°
2026-05-04 13:04 42.76481 -70.82258 4051 ft 177 kts 205°
2026-05-04 13:04 42.75308 -70.82751 4052 ft 176 kts 206°
2026-05-04 13:04 42.74136 -70.83245 4055 ft 176 kts 206°
2026-05-04 13:04 42.72962 -70.83739 4054 ft 176 kts 206°
2026-05-04 13:05 42.71792 -70.84227 4056 ft 176 kts 206°
2026-05-04 13:05 42.70617 -70.84711 4054 ft 176 kts 206°
2026-05-04 13:05 42.69441 -70.85189 4057 ft 176 kts 205°
2026-05-04 13:05 42.68261 -70.85656 4056 ft 178 kts 202°
2026-05-04 13:06 42.67025 -70.85952 4058 ft 181 kts 198°
2026-05-04 13:06 42.65791 -70.86255 4059 ft 178 kts 205°
2026-05-04 13:06 42.64644 -70.86835 4059 ft 175 kts 209°
2026-05-04 13:06 42.63496 -70.87384 4060 ft 175 kts 208°
2026-05-04 13:07 42.62376 -70.87938 4061 ft 175 kts 209°
2026-05-04 13:07 42.61256 -70.88481 4065 ft 176 kts 208°
2026-05-04 13:07 42.60090 -70.89047 4057 ft 176 kts 208°
2026-05-04 13:07 42.58936 -70.89615 4058 ft 177 kts 209°
2026-05-04 13:08 42.57773 -70.90181 4058 ft 178 kts 208°
2026-05-04 13:08 42.56604 -70.90752 4028 ft 181 kts 208°
2026-05-04 13:08 42.55393 -70.91342 3807 ft 190 kts 207°
2026-05-04 13:08 42.54125 -70.91956 3548 ft 196 kts 207°
2026-05-04 13:09 42.52865 -70.92567 3287 ft 187 kts 208°
2026-05-04 13:09 42.51674 -70.93142 3039 ft 177 kts 209°
2026-05-04 13:09 42.50554 -70.93692 2803 ft 165 kts 208°
2026-05-04 13:09 42.49506 -70.94197 2580 ft 157 kts 210°
2026-05-04 13:10 42.48490 -70.94702 2377 ft 152 kts 210°
2026-05-04 13:10 42.47499 -70.95175 2172 ft 149 kts 210°
2026-05-04 13:10 42.46526 -70.95647 1980 ft 148 kts 210°
2026-05-04 13:10 42.45595 -70.96093 1787 ft 131 kts 210°
2026-05-04 13:11 42.45042 -70.96361 1668 ft 120 kts 212°
2026-05-04 13:11 42.44159 -70.96794 1483 ft 114 kts 211°
2026-05-04 13:11 42.43408 -70.97164 1328 ft 113 kts 211°
2026-05-04 13:11 42.42673 -70.97515 1172 ft 113 kts 210°
2026-05-04 13:12 42.41923 -70.97880 1006 ft 113 kts 208°
2026-05-04 13:12 42.41171 -70.98245 850 ft 117 kts 205°
2026-05-04 13:12 42.40400 -70.98617 693 ft 118 kts 205°
2026-05-04 13:12 42.39677 -70.98961 543 ft 100 kts 205°
2026-05-04 13:13 42.39060 -70.99254 411 ft 88 kts 207°
2026-05-04 13:13 42.38494 -70.99535 298 ft 87 kts 205°
2026-05-04 13:13 42.37925 -70.99828 185 ft 89 kts 206°
2026-05-04 13:13 42.37351 -71.00098 61 ft 82 kts 207°
2026-05-04 13:14 42.36895 -71.00312 20 ft 58 kts 199°
2026-05-04 13:14 42.36659 -71.00430 20 ft 28 kts 200°
2026-05-04 13:14 42.36477 -71.00524 20 ft 29 kts 201°
2026-05-04 13:14 42.36295 -71.00607 20 ft 26 kts 198°
2026-05-04 13:15 42.36167 -71.00695 20 ft 16 kts 231°
2026-05-04 13:15 42.36152 -71.00822 20 ft 16 kts 284°
2026-05-04 13:15 42.36197 -71.00962 20 ft 15 kts 295°
2026-05-04 13:15 42.36236 -71.01077 20 ft 12 kts 295°
2026-05-04 13:16 42.36286 -71.01210 20 ft 20 kts 301°
2026-05-04 13:16 42.36354 -71.01358 20 ft 17 kts 302°
2026-05-04 13:16 42.36400 -71.01484 20 ft 15 kts 298°
2026-05-04 13:16 42.36459 -71.01621 20 ft 16 kts 301°
2026-05-04 13:17 42.36528 -71.01689 20 ft 12 kts 38°
2026-05-04 13:17 42.36532 -71.01611 20 ft 8 kts 143°
2026-05-04 13:17 42.36522 -71.01602 20 ft 0 kts 153°